Showing default

GALILEO 26 (2C2), 43565

Orbit data source: Space-Track

GALILEO 26 (2C2), 43565 is a payload satellite owned by GNSS Agency (ESA) that was launched on Wed, 25 Jul 2018 UTC via an ARIANE 5ES launch vehicle from the French Guiana (FRGUI). Payload-class satellites include a variety of spacecraft equipped with specific instruments for various scientific and technological missions. These include communications satellites like Starlink; space stations such as the ISS; scientific satellites like the Hubble; Earth observation satellites from companies like Planet Labs, Umbra, and HawkEye 360; GPS; miniature CubeSats for education and research; and military/defense satellites.

Loading next visibility...
Identifier
43565, 2018-060B
Orbit
Active
Country
Flag of ESAESA
Related business
Manufacturer
OHB
Mission
Operational Civil Navigation
Bus & Motor
GALILEOSAT, AOCS
Mass
715 kg wet, 700 kg dry
Launch date (UTC)
2018-07-25 (8 years ago)
Launch vehicle
ARIANE 5ES
Launch site
French Guiana (FRGUI)
Object type
Payload
Rocket body
Debris
Shape & HBR
Box + 2 Pan, 7.3 m
Radar Cross Section
9.223 m², Large (>1 m²)

Expand to show TLE details & history
Last TLE update: 3 days ago

TLE from 3 days ago
0 GALILEO 26 (2C2)
1 43565U 18060B   26170.04438053 -.00000093  00000-0  00000-0 0  9994
2 43565  57.1718 341.7337 0001999 248.0862 111.8861  1.70475706 49242
Epoch: 2026-06-19T01:03Z
TLE epoch observation values (Epoch: 2026-06-19T01:03:54.477Z)
Latitude
Longitude
58.46599°
Altitude
23,224.499 km
Speed
3.669 km/s
True Right ascension
22h 46m 53s
True Declination
0° 00' 00"
Sunlit
Object was in daylight at epoch
Visualization orbit readout
Latitude
Unknown
Longitude
Unknown
Altitude
Unknown
Speed
Unknown
Apparent Right ascension
Unknown
Apparent Declination
Unknown
Sunlit
N/A
Visualization observer readout
Local Sidereal Time
21:24:13
Azimuth
Unknown
Elevation
Unknown
Doppler factor
Unknown
Orbital elements
Apogee altitude
23,227.833 km
Perigee altitude
23,215.999 km
Semi-major axis
29,600.053 km
Eccentricity
0.0002
Inclination
57.1718°
RAAN
341.7337°
Arg. of periapsis
248.0862°
True anomaly
111.90735°
Mean anomaly
111.8861°
Eccentric anomaly
111.89673°
Mean motion
0.42619 °/min
Orbital period
844.69 mins
BSTAR
0
Loading maneuver chart data...
Computing Atmospheric mass density...
Loading historical data...
Loading historical data...
Loading historical data...
Loading historical data...
Loading historical data...
Loading historical data...
Loading historical data...
Other satellites on launch #60 in the year 2018 (2018-07-25 UTC)

Documentation

Showing up to 5 results
|